Regional Weather Roundup
Issued by NWS Portland, ME

Current Version | Previous Version | Text Only | Print | Product List | Glossary Off
Versions: 1 2 3 4 5 6 7 8 9 10 11 12 13 14 15 16 17 18 19 20 21 22 23 24 25 26 27 28 29 30 31 32 33 34 35 36 37 38 39 40 41 42 43 44 45 46 47 48 49 50
449 ASUS41 KGYX 281610 RWRGYX WEATHER ROUNDUP FOR MAINE AND NEW HAMPSHIRE NATIONAL WEATHER SERVICE GRAY ME 1100 AM EST TUE FEB 28 2017 MEZ002-005-006-010-012-015-018-020-021-024-026-027-029-281700- MAINE CITY SKY/WX TMP DP RH WIND PRES REMARKS PORTLAND PTSUNNY 44 24 45 NE5 30.40F SANFORD CLOUDY 43 27 53 CALM 30.39F BAR HARBOR SUNNY 43 26 51 SE5 30.41F WISCASSET CLOUDY 46 25 43 VRB3 30.41F ROCKLAND PTSUNNY 45 29 53 SE7 30.40F FRYEBURG MOSUNNY 45 25 45 E6 30.36F LEWISTONAUBURN SUNNY 45 26 47 S3 30.38F AUGUSTA MOSUNNY 43 21 41 CALM 30.38F WATERVILLE SUNNY 42 25 50 VRB5 30.36F BANGOR MOSUNNY 43 25 49 CALM 30.40F GREENVILLE N/A 37 16 42 CALM 30.31S MILLINOCKET SUNNY 35 18 49 E3 30.39F HOULTON SUNNY 32 18 56 CALM 30.38F PRESQUE ISLE SUNNY 31 15 52 W3 30.38F FRENCHVILLE SUNNY 26 11 52 S6 30.33F CARIBOU SUNNY 29 14 53 MISG 30.37F $$ NHZ002-005-008-009-011-012-014-281700- NEW HAMPSHIRE CITY SKY/WX TMP DP RH WIND PRES REMARKS PORTSMOUTH CLOUDY 45 26 48 CALM 30.37F ROCHESTER CLOUDY 46 25 43 CALM 30.37F NASHUA CLOUDY 47 29 49 CALM 30.38F MANCHESTER CLOUDY 45 24 43 N8 30.36F CONCORD CLOUDY 44 25 47 CALM 30.37F LACONIA CLOUDY 38 24 57 E5 30.37F PLYMOUTH CLOUDY 41 28 59 E3 30.35F BERLIN MOSUNNY 44 23 43 CALM 30.32F WHITEFIELD MOSUNNY 46 21 37 VRB3 30.32F JAFFREY CLOUDY 44 27 51 CALM 30.34F KEENE CLOUDY 41 27 57 CALM 30.35F LEBANON CLOUDY 42 26 53 CALM 30.34F MT WASHINGTON PTSUNNY 21 16 79 S9 N/A $$ VTZ005-007-008-281700- VERMONT CITY SKY/WX TMP DP RH WIND PRES REMARKS ST JOHNSBURY N/A 42 26 53 MISG 30.31F MONTPELIER SUNNY 45 27 49 SE10 30.34F BURLINGTON MOSUNNY 48 26 42 SW10 30.30F $$ MAZ007-012-024-CTZ003-RIZ002-NYZ038-NYZ072-281700- SOUTHERN NEW ENGLAND AND NY CITY SKY/WX TMP DP RH WIND PRES REMARKS BOSTON CLOUDY 48 36 63 CALM 30.38F WORCESTER CLOUDY 47 30 51 E5 30.34F NANTUCKET CLOUDY 49 40 71 SE10 30.40F PROVIDENCE CLOUDY 49 37 63 S7 30.37F HARTFORD PTSUNNY 51 33 50 CALM 30.34F ALBANY PTSUNNY 52 34 50 CALM 30.32F NEW YORK CITY MOSUNNY 49 39 68 NE12 30.34F $$ ANZ081-ANZ082-ANZ150-NHZ014-MEZ023>029-281700- COASTAL MARINE OBSERVATIONS STATION/POSITION TIME TEMP WIND PRES WAVE AIR SEA DIR/SP/G HT/PER (UTC) (F) (DEG/KT/KT) (MB) (FT/S) MOUNT DESERT ROC 1600 41 1030.0S MATINICUS ROCK 1500 42 100/ 2/ 3 1029.4S ISLE OF SHOALS 1500 40 200/ 3/ 3 1029.4F JEFFREYS LEDGE 1506 43 N/A 2/ 9 CASHES LEDGE BUO 1550 44 42 1029.6S 3/ 6 GEORGES BANK BUO 1550 44 43 1031.0F 3/ 6 $$ .............KEY.............. WCI - WIND CHILL TC - TEMPERATURE IN CELSIUS VSB - VISIBILITY IN MILES HX - HEAT INDEX FAIR- INDICATES FEW OR NO CLOUDS BELOW 12,000 FT, WITH NO SIGNIFICANT WEATHER AND/OR OBSTRUCTIONS TO VISIBILITY.

USA.gov is the U.S. government's official web portal to all federal, state and local government web resources and services.